Location: Unspecified
(41.9031°N, 12.4386°E)
Time: 05:49:48
(UTC+02:00)

ISS - Pass Details

Date: 30 March 2020
Orbit: 417 x 423 km, 51.6° (Epoch: 29 March)

Event Time Altitude Azimuth Distance (km) Brightness Sun altitude
Rises 20:56:32 0° 307° (NW) 2,361 1.6 -15.7°
Reaches altitude 10° 20:58:58 10° 324° (NW) 1,497 -0.1 -16.2°
Maximum altitude 21:01:37 21° 16° (NNE) 993 -1.8 -16.6°
Enters shadow 21:02:43 18° 44° (NE) 1,095 -1.9 -16.8°
